{"data":{"norad_id":68147,"epoch":"2026-09-20T00:04:40.950336Z","epoch_age_seconds":98318,"freshness":"FRESH","line1":"1 68147U 26049F   26263.00325174  .00014540  00000+0  45183-3 0  9995","line2":"2 68147  97.2807 282.9436 0001701 106.0474 254.0956 15.33444907 29424","mean_motion":15.33444907,"eccentricity":0.0001701,"inclination_deg":97.2807,"raan_deg":282.9436,"arg_perigee_deg":106.0474,"mean_anomaly_deg":254.0956,"bstar":0.00045183,"rev_number":2942,"period_min":93.906210352036,"perigee_km":464.37934113597,"apogee_km":466.70756122546,"semimajor_km":6843.6804511807,"source":"CELESTRAK","updated_at":"2026-09-20T09:00:43.792227Z"}}